Regional Weather Roundup
Issued by NWS

Home | Current Version | Previous Version | Text Only | Print | Product List | Glossary Off
Versions: 1 2 3 4 5 6 7 8 9 10 11 12 13 14 15 16 17 18 19 20 21 22 23 24 25 26 27 28 29 30 31 32 33 34 35 36 37 38 39 40 41 42 43 44 45 46 47 48 49 50

000
ASUS45 KBOU 260607
RWRCO

WEATHER ROUNDUP FOR COLORADO
NATIONAL WEATHER SERVICE DENVER/BOULDER CO
1200 AM MDT TUE JUL 26 2016

NOTE: "FAIR" INDICATES FEW OR NO CLOUDS BELOW 12000 FEET WITH NO
SIGNIFICANT WEATHER AND/OR OBSTRUCTIONS TO VISIBILITY.

COZ001>005-013-030-031-260700-
...NORTHWEST COLORADO...

CITY           SKY/WX    TMP DP  RH WIND       PRES   REMARKS
CRAIG          FAIR      72  37  28 CALM      30.23F
HAYDEN         FAIR      72  34  25 W12       30.27R
MEEKER         FAIR      67  47  48 CALM      30.28R
MOUNT WERNER   NOT AVBL
STEAMBOAT SPGS FAIR      75  35  22 NE3       30.29F
WALDEN         FAIR      55  36  47 E8        30.42S
$$

COZ006>008-011-260700-
...WEST CENTRAL VALLEYS...

CITY           SKY/WX    TMP DP  RH WIND       PRES   REMARKS
GRAND JUNCTION FAIR      81  44  27 W9        30.13F
MONTROSE       FAIR      68  47  46 S9        30.26R
EAGLE          FAIR      64  37  36 NE6       30.32S
RIFLE          FAIR      74  41  30 E7        30.20S
DELTA          FAIR      76  43  30 E7        30.19S
NUCLA          NOT AVBL
$$

COZ017>023-064>068-260700-
...SOUTHWEST COLORADO...

CITY           SKY/WX    TMP DP  RH WIND       PRES   REMARKS
DURANGO        FAIR      67  48  50 CALM      30.31F
CORTEZ         FAIR      71  49  45 VRB5      30.26R
PAGOSA SPRINGS FAIR      67  44  42 CALM      30.40F
TELLURIDE      CLOUDY    60  44  54 SE3       30.53S
WOLF CREEK PAS CLOUDY    52  36  54 CALM      30.76S
$$

COZ009-010-012-014-032>034-037-058>063-260700-
...CENTRAL COLORADO...

CITY           SKY/WX    TMP DP  RH WIND       PRES   REMARKS
ASPEN          FAIR      59  41  51 CALM      30.40R
BUENA VISTA    FAIR      64  45  48 E7        30.45S
COPPER MTN     FAIR      59  23  25 SE6       30.75F
BERTHOUD PASS  FAIR      50  34  53 N12       30.79S
COTTONWOOD PAS FAIR      63  32  31 CALM      30.59R
GUNNISON       FAIR      61  45  55 CALM      30.44R
KREMMLING      FAIR      55  41  58 CALM      30.39R
LEADVILLE      FAIR      56  32  40 S6        30.57R
MONARCH PASS   CLOUDY    48  41  76 NE9       30.85S
SALIDA         CLOUDY    69  48  48 SE7G16    30.50R
SUNLIGHT       FAIR      59  34  38 CALM      30.66S
WILKERSON PASS MOCLDY    52  37  58 S16G22    30.73F
$$

COZ069>075-260700-
...SAN LUIS VALLEY/SANGRE DE CRISTO MOUNTAINS...

CITY           SKY/WX    TMP DP  RH WIND       PRES   REMARKS
ALAMOSA        CLOUDY    65  49  56 E6        30.38F
LA VETA PASS   CLOUDY    50  46  87 N9        30.64F
SAGUACHE       CLOUDY    68  45  42 SE6       30.46R
$$

COZ035-036-038>040-260700-
...NORTHERN COLORADO FRONT RANGE...

CITY           SKY/WX    TMP DP  RH WIND       PRES   REMARKS
DENVER INTL AP MOCLDY    76  47  35 SW18G28   30.16F
DMNS CITY PARK   N/A     77  44  30 SW8G20    30.17F
AURORA         MOCLDY    75  47  37 SW16      30.19F
FRONT RANGE AP NOT AVBL
ERIE MUNI ARPT FAIR      76  45  33 S7        30.14S
BOULDER MUN AP FAIR      73  45  35 W5        30.14F
CENTENNIAL     MOCLDY    75  44  33 SW17G29   30.21F
BROOMFIELD     FAIR      73  46  38 S10       30.19S
LONGMONT       FAIR      72  55  56 S3        30.15S
$$

COZ041-046-047-076>085-087-088-260700-
...PIKES PEAK/PALMER DIVIDE AND SOUTHERN FOOTHILLS...

CITY           SKY/WX    TMP DP  RH WIND       PRES   REMARKS
COLO. SPRINGS  MOCLDY    67  50  54 S7        30.36F
A. F. ACADEMY  FAIR      68  47  48 S10       30.36F
SCHRIEVER AFB  NOT AVBL
ELLICOTT       FAIR       1 N/A N/A SW3       30.33F
FALCON         FAIR      64  48  57 SW10      30.40S
FORT CARSON    FAIR      68  51  54 SW8       30.32F
LIMON          NOT AVBL
MONUMENT HILL  FAIR      64  46  52 S22G36    30.36R
TRINIDAD       NOT AVBL
$$

COZ042>045-048>051-090-091-260700-
...NORTHEAST COLORADO...

CITY           SKY/WX    TMP DP  RH WIND       PRES   REMARKS
GREELEY ARPT   FAIR      66  55  68 E8        30.14S
AKRON          FAIR      68  60  75 S14       30.18S
BURLINGTON     FAIR      70  64  81 S13       30.17F
WRAY           NOT AVBL
STERLING       FAIR      70  63  78 S9        30.13S
HOLYOKE          N/A     68  63  83 W7        30.15S
FORT MORGAN    FAIR      66  60  81 E6        30.15F
$$

COZ086-089-092>099-260700-
...SOUTHEAST COLORADO...

CITY           SKY/WX    TMP DP  RH WIND       PRES   REMARKS
PUEBLO         FAIR      70  60  70 NW6       30.24F
LA JUNTA       FAIR      72  55  55 NW13      30.13S
LAMAR          FAIR      74  57  55 S16       30.08F
SPRINGFIELD      N/A     73  63  70 CALM      30.21F
$$



USA.gov is the U.S. government's official web portal to all federal, state and local government web resources and services.